Home   Weather   Landeck   Past weeks

Flag for Austria Past Weather in Landeck, Tyrol, Austria — Yesterday and Last 2 Weeks

Now
27 °F

Chilly.


Feels Like: 27 °F
Forecast: 11 / 41 °F
Wind: 1 mph from Northeast

Location: Landeck

Current Time: Jan 24, 2017 at 2:42:33 pm

Latest Report: Jan 24, 2017 at 1:00 pm


Visibility: N/A

Pressure: 30.27 "Hg (27.42 "Hg at 784m altitude)

Humidity: 48%

Dew Point: 10 °F

Location of LandeckLocation

Past Weather in Landeck — Graph

°F

Landeck Temperature Yesterday

Maximum temperature yesterday: 35 °F (at 2:00 pm)
Minimum temperature yesterday: 19 °F (at 9:00 am)
Average temperature yesterday: 24 °F

High & Low Weather Summary for the Past Weeks

 TemperatureHumidityPressure
High39 °F (Jan 12, 2:00 pm)91% (Jan 12, 9:00 pm)30.70 "Hg (Jan 12, 9:00 pm)
Low10 °F (Jan 19, 6:00 am)32% (Jan 23, 2:00 pm)29.47 "Hg (Jan 13, 4:00 am)
Average23 °F73%30.27 "Hg
* Reported Jan 9 1:00 pm — Jan 24 1:00 pm, Landeck, Weather by CustomWeather, © 2017

Note: Actual official high and low records may vary slightly from our data, if they occured in-between our weather recording intervals... More about our weather records

Advertising

Landeck Weather History for the Previous 24 Hours

Scroll right to see more
 ConditionsComfort  
Time TempWeatherWind HumidityBarometerVisibility
1:00 pm
Tue, Jan 24
27 °FChilly.1 mph48%30.27 "HgN/A
12:00 pm25 °FCold.1 mph51%30.31 "HgN/A
11:00 am22 °FCold.1 mph58%30.34 "HgN/A
10:00 am18 °FCold.1 mph67%30.37 "HgN/A
9:00 am16 °FCold.2 mph71%30.37 "HgN/A
8:00 am17 °FCold.3 mph70%30.36 "HgN/A
7:00 am16 °FCold.2 mph72%30.35 "HgN/A
6:00 am17 °FCold.2 mph72%30.34 "HgN/A
5:00 am17 °FCold.3 mph73%30.34 "HgN/A
4:00 am18 °FCold.2 mph72%30.34 "HgN/A
3:00 am19 °FCold.2 mph69%30.33 "HgN/A
2:00 am19 °FCold.2 mph73%30.33 "HgN/A
1:00 am19 °FCold.2 mph75%30.33 "HgN/A
12:00 am20 °FCold.2 mph73%30.34 "HgN/A
11:00 pm
Mon, Jan 23
21 °FCold.1 mph73%30.32 "HgN/A
10:00 pm20 °FPassing clouds.1 mph75%30.32 "Hg2 mi
9:00 pm21 °FCold.1 mph74%30.32 "HgN/A
8:00 pm23 °FCold.1 mph72%30.30 "HgN/A
7:00 pm25 °FCold.1 mph68%30.28 "HgN/A
6:00 pm25 °FChilly.2 mph63%30.26 "HgN/A
5:00 pm28 °FChilly.2 mph59%30.24 "HgN/A
4:00 pm27 °FChilly.1 mph56%30.24 "HgN/A
3:00 pm30 °FChilly.1 mph47%30.23 "HgN/A
2:00 pm35 °FChilly.3 mph32%30.20 "HgN/A
Weather by CustomWeather, © 2017

See weather overviewHow to use our weather pages